Regional Weather Roundup
Issued by NWS

Home | Current Version | Previous Version | Graphics & Text | Print | Product List | Glossary On
Versions: 1 2 3 4 5 6 7 8 9 10 11 12 13 14 15 16 17 18 19 20 21 22 23 24 25 26 27 28 29 30 31 32 33 34 35 36 37 38 39 40 41 42 43 44 45 46 47 48 49 50
000
ASUS43 KBIS 031902
RWRND

NORTH DAKOTA REGIONAL WEATHER ROUNDUP
NATIONAL WEATHER SERVICE BISMARCK ND
100 PM CST SAT DEC 03 2016

NOTE: "FAIR" INDICATES FEW OR NO CLOUDS BELOW 12,000 FEET WITH NO
SIGNIFICANT WEATHER AND/OR OBSTRUCTIONS TO VISIBILITY.


NDZ001>003-009>011-017-032000-
NORTHWEST NORTH DAKOTA

CITY           SKY/WX    TMP DP  RH WIND       PRES   REMARKS
WILLISTON      CLOUDY    30  25  81 S9        29.78F
MINOT          SUNNY     28  24  85 S8        29.83F WCI  20
MINOT AFB      SUNNY     27  22  83 S16       29.82F WCI  15
$$

NDZ018>021-031>035-040>046-032000-
SOUTHWEST NORTH DAKOTA

CITY           SKY/WX    TMP DP  RH WIND       PRES   REMARKS
BISMARCK       PTSUNNY   26  24  92 SE9       29.92F WCI  17
DICKINSON      PTSUNNY   27  20  75 SW9       29.80F WCI  18
GARRISON         N/A     27  23  85 S15       29.85F WCI  15
HETTINGER ARPT PTSUNNY   26  20  77 SW5       29.86F
$$

NDZ004>008-012>016-024-026-027-054-032000-
NORTHEAST NORTH DAKOTA

CITY           SKY/WX    TMP DP  RH WIND       PRES   REMARKS
GRAND FORKS    CLOUDY    29  22  75 S17       30.09F WCI  17
GRND FRKS AFB  CLOUDY    29  23  79 S20G25    30.06F WCI  16
DEVILS LAKE    CLOUDY    30  27  88 S20       29.97F WCI  17
$$

NDZ022-023-025-028>030-036>039-047>053-032000-
SOUTHEAST NORTH DAKOTA

CITY           SKY/WX    TMP DP  RH WIND       PRES   REMARKS
FARGO          CLOUDY    32  23  69 S18       30.11F
JAMESTOWN      CLOUDY    32  27  81 SE16      29.97F
$$





USA.gov is the U.S. government's official web portal to all federal, state and local government web resources and services.